{"data":{"norad_id":65154,"epoch":"2026-05-25T03:15:55.283328Z","epoch_age_seconds":57053,"freshness":"FRESH","line1":"1 65154U 25171Y   26145.13605652  .00001321  00000+0  20199-3 0  9993","line2":"2 65154  51.8973 197.5393 0000515  75.9474 284.1545 14.79985138 43966","mean_motion":14.79985138,"eccentricity":5.15e-5,"inclination_deg":51.8973,"raan_deg":197.5393,"arg_perigee_deg":75.9474,"mean_anomaly_deg":284.1545,"bstar":0.00020199,"rev_number":4396,"period_min":97.29827435605,"perigee_km":629.01016059622,"apogee_km":629.73193392509,"semimajor_km":7007.5080472607,"source":"CELESTRAK","updated_at":"2026-05-25T13:38:05.171528Z"}}